Aérodrome :
LOGIN :

S'inscrire | Disclaimer

   EN    FR    IT 

 










Légende :    VFR   VFR Marginal   IFR   IFR Intensif   IFR Très Intensif
Visi : 
Plafond : 
>= 8 km
>= 3000ft
5 à 8 km
1000 à 3000 ft
1500m à 5 km
500 à 1000 ft
800 à 1500m
200 à 500 ft
< 800m
< 200 ft
Symboles :   Orages  Brouillard  Fortes neiges  Fortes précipitations  Vent > 20 kt
SIGMETs :   Divers  Orages  Givrage  Turbulence  Onde Orograph.  Cendres Volcan.







- Altitude de l'aérodrome : 129 ft
- Code IATA : ZPQ


ETHE - Rheine Bentlage

DERNIER METAR :
  • 230720Z 27014KT 9999 FEW024 SCT038 BKN180 19/13 Q1013 BLU BLU

METARs EXPIRÉS :
  • 230620Z 27012KT 9999 FEW020 SCT038 BKN180 18/13 Q1013 BLU BLU
  • 230520Z AUTO 27010KT //// // ////// 17/14 Q1012 ///

TAF TAF ETHE
Valide du 23 à 08h jusqu'au 23 à 17h UTC


230721Z 2308/2317 27010G20KT 9999 NSW FEW020 SCT040 BKN180
Pas de NOTAMs connus pour ce terrain.



MET'MAP, la Météo Aéronautique d'un coup d'oeil ! - Copyright ORBIFLY Décembre 2007 - Disclaimer

ORBIFLY MET'MAP TEAM :

Programmation & Développement : Alexandra Zaïnal
Conception & Développement : Baudouin d'Aumeries
Co-Programmation & Développement : Marc-Olivier Méhu
Soutien technique & logistique : Manuel Goepfert

Contact : metmap@orbifly.com




SOURCES & CREDITS :

   NOAA